{"data":{"norad_id":37152,"epoch":"2026-05-25T01:12:48.898080Z","epoch_age_seconds":67089,"freshness":"FRESH","line1":"1 37152U 10043A   26145.05056595  .00000023  00000+0  94756-4 0  9998","line2":"2 37152  82.4566  79.4940 0001183 112.0615 259.9040 12.42983860712634","mean_motion":12.4298386,"eccentricity":0.0001183,"inclination_deg":82.4566,"raan_deg":79.494,"arg_perigee_deg":112.0615,"mean_anomaly_deg":259.904,"bstar":9.4756e-5,"rev_number":71263,"period_min":115.8502572994,"perigee_km":1493.0482724965,"apogee_km":1494.9108152708,"semimajor_km":7872.1165438837,"source":"CELESTRAK","updated_at":"2026-05-25T13:37:55.222324Z"}}